[[{"header":{"parameterUnit":"m.s-1","parameterCategory":1,"la1":30.2991,"la2":30.254,"lo1":-89.0895,"lo2":-89.0444,"dy":0.0017,"dx":0.0017,"nx":28,"ny":28,"refTime":"2026-01-04T09:00:00:Z","depth":0,"parameterNumber":2,"parameterNumberName":"U-component_of_WINDS"},"data":[0,0,0,0,0,0,0,0,0,0,0,0,0,0,0,0,0,0,0,0,0,0,0,0,0,0,0,0,0,0,0,0,0,0,0,0,0,0,0,0,0,0,0,0,0,0,0,0,0,0,0,0,0,0,0,0,0,0,-2.0252,-2.0253,0,-2.0278,-2.0278,-2.0278,-2.0231,-2.023,-2.0228,-2.0226,-2.0259,-2.0261,-2.0264,0,0,0,0,0,0,0,0,0,0,0,0,0,-2.017,-2.0172,-2.0252,-2.0253,-2.0253,-2.0278,-2.0278,-2.0278,-2.0231,-2.0229,-2.0228,-2.0226,-2.0258,-2.0261,-2.0264,0,0,0,0,0,0,0,0,0,0,0,0,0,-2.0202,-2.0172,-2.0252,-2.0232,-2.0231,-2.0278,-2.0278,-2.0279,-2.0232,-2.0229,-2.0227,-2.0225,-2.0257,-2.0261,-2.0264,-2.0334,0,0,-2.0275,-2.0277,0,0,0,0,0,0,0,0,-2.02,-2.0205,-2.0235,-2.0234,-2.0232,-2.0249,-2.0261,-2.0297,-2.0232,-2.0232,-2.0226,-2.0224,-2.0258,-2.0261,-2.0272,-2.0335,-2.0337,-2.0275,-2.0278,-2.0279,-2.028,0,0,0,0,0,0,0,-2.0198,-2.0204,-2.0263,-2.0235,-2.0234,-2.0224,-2.0226,-2.0268,-2.0258,-2.0232,-2.0228,-2.0231,-2.0257,-2.0268,-2.0272,-2.0337,-2.0275,-2.0279,-2.0281,-2.0282,-2.0462,-2.0464,0,0,0,0,0,0,-2.0197,-2.0202,-2.0262,-2.0263,-2.021,-2.0228,-2.023,-2.0246,-2.0257,-2.0257,-2.0233,-2.0229,-2.0263,-2.0268,-2.0273,-2.0356,-2.0279,-2.0282,-2.0284,-2.0459,-2.0462,-2.0465,0,0,0,0,0,0,-2.0196,-2.0203,-2.0261,-2.0232,-2.0238,-2.0232,-2.025,-2.0248,-2.0259,-2.0259,-2.0258,-2.0246,-2.0262,-2.0268,-2.0319,-2.0357,-2.0284,-2.0287,-2.0456,-2.046,-2.0464,-2.0523,0,0,0,0,0,0,-2.0194,-2.0203,-2.0227,-2.0233,-2.024,-2.0304,-2.0252,-2.025,-2.0264,-2.0259,-2.0271,-2.027,-2.026,-2.0314,-2.0323,-2.036,-2.029,-2.0453,-2.0458,-2.0463,-2.0518,-2.0529,-2.0538,0,0,0,0,0,-2.0191,-2.0244,-2.0229,-2.0236,-2.027,-2.0307,-2.0311,-2.0296,-2.0267,-2.0293,-2.0294,-2.027,-2.0351,-2.032,-2.0329,-2.0368,-2.045,-2.0456,-2.0462,-2.0513,-2.0526,-2.0538,0,0,0,0,0,0,-2.0246,-2.0244,-2.0227,-2.0284,-2.0295,-2.0298,-2.0331,-2.0311,-2.0333,-2.0327,-2.031,-2.0313,-2.0368,-2.0373,-2.0338,-2.0437,-2.0396,-2.0404,-2.0432,-2.0444,-2.0454,-2.0453,-2.0293,0,0,0,0,0,-2.0264,-2.0291,-2.0289,-2.0339,-2.0346,-2.0337,-2.0353,-2.034,-2.0353,-2.0358,-2.0362,-2.0377,-2.0406,-2.0425,-2.0452,-2.0518,-2.0521,-2.055,-2.056,-2.0568,-2.0576,-2.0613,-2.0627,-2.0485,-2.0485,-2.0485,0,0,-2.0303,-2.0305,-2.0324,-2.035,-2.0358,-2.0389,-2.0342,-2.0376,-2.04,-2.0364,-2.0412,-2.0416,-2.0431,-2.0491,-2.0517,-2.0497,-2.0616,-2.0576,-2.0582,-2.0586,-2.0621,-2.0634,-2.0646,-2.0489,-2.0488,-2.0488,0,0,-2.0389,-2.0393,-2.0435,-2.0444,-2.0455,-2.0449,-2.046,-2.0466,-2.0466,-2.0514,-2.0488,-2.0517,-2.0567,-2.0579,-2.0592,-2.0685,-2.0665,-2.0694,-2.0747,-2.0784,-2.0795,-2.0805,-2.084,-2.0852,-2.0701,-2.0702,-2.0702,0,-2.0436,-2.0479,-2.046,-2.0497,-2.051,-2.0477,-2.0521,-2.0531,-2.0552,-2.0563,-2.0539,-2.0602,-2.061,-2.0673,-2.0695,-2.0706,-2.072,-2.0693,-2.0794,-2.0804,-2.0813,-2.0846,-2.0859,-2.0705,-2.0705,-2.0704,-2.0704,0,-2.0538,-2.0569,-2.0602,-2.0621,-2.0638,-2.0678,-2.0668,-2.0688,-2.0675,-2.0672,-2.0722,-2.0731,-2.0759,-2.0773,-2.0761,-2.0835,-2.0822,-2.0797,-2.0755,-2.0831,-2.0861,-2.0874,-2.071,-2.0709,-2.0708,-2.0707,0,0,-2.066,-2.0667,-2.068,-2.0689,-2.0699,-2.0724,-2.0764,-2.079,-2.0808,-2.0824,-2.0859,-2.0902,-2.0879,-2.0894,-2.0883,-2.0915,-2.099,-2.0886,-2.0886,-2.0906,-2.1074,-2.1094,-2.1108,-2.0976,-2.0978,-2.098,-2.1073,0,-2.0746,-2.0812,-2.0797,-2.0864,-2.0893,-2.0863,-2.0898,-2.091,-2.0909,-2.0936,-2.0935,-2.0967,-2.0933,-2.0942,-2.0972,-2.0974,-2.1023,-2.0967,-2.1011,-2.1012,-2.1008,-2.1124,-2.1145,-2.1232,-2.1085,-2.1087,-2.1088,0,-2.0856,-2.0874,-2.0943,-2.095,-2.0962,-2.0994,-2.1017,-2.1042,-2.1056,-2.1053,-2.107,-2.1053,-2.1096,-2.1053,-2.1113,-2.1075,-2.1092,-2.1096,-2.1099,-2.1103,-2.1056,-2.1133,-2.1259,-2.1273,-2.1107,-2.1105,-2.1104,0,-2.094,-2.0982,-2.1029,-2.1037,-2.1046,-2.1069,-2.1074,-2.1085,-2.1102,-2.1123,-2.1135,-2.1161,-2.1176,-2.1199,-2.1191,-2.116,-2.1253,-2.1209,-2.1254,-2.1254,-2.1276,-2.1275,-2.1408,-2.1285,-2.1285,-2.1284,-2.1284,0,-2.1039,-2.1083,-2.1066,-2.1095,-2.1145,-2.1127,-2.1177,-2.1179,-2.119,-2.1221,-2.1196,-2.1227,-2.1213,-2.1244,-2.1238,-2.1289,-2.1296,-2.1297,-2.1295,-2.13,-2.13,-2.1312,-2.1306,-2.1288,-2.1287,-2.1286,-2.1286,0,-2.1141,-2.1131,-2.1181,-2.1185,-2.1187,-2.1223,-2.1228,-2.1257,-2.1254,-2.1293,-2.1302,-2.1298,-2.1332,-2.1326,-2.1365,-2.1361,-2.1426,-2.1416,-2.142,-2.1419,-2.1464,-2.1461,-2.1611,-2.1631,-2.1494,-2.1495,-2.1496,0,-2.1205,-2.1238,-2.1245,-2.1263,-2.127,-2.1299,-2.1316,-2.1301,-2.132,-2.1339,-2.1366,-2.1397,-2.1422,-2.1478,-2.1481,-2.1511,-2.1502,-2.1553,-2.1507,-2.1511,-2.1505,-2.1504,-2.1508,-2.1563,-2.1564,-2.1565,-2.1566,0,-2.1321,-2.1315,-2.1338,-2.1361,-2.1382,-2.1399,-2.1415,-2.1432,-2.1419,-2.1442,-2.1475,-2.1494,-2.1533,-2.1566,-2.1593,-2.1602,-2.1583,-2.1581,-2.1593,-2.1599,-2.16,-2.1602,-2.1447,-2.1578,-2.1576,-2.1576,-2.1575,-2.1575,-2.1407,-2.1435,-2.1445,-2.1473,-2.1483,-2.1498,-2.1526,-2.1526,-2.1553,-2.1581,-2.1572,-2.1611,-2.1626,-2.1661,-2.1672,-2.1704,-2.1686,-2.1703,-2.1708,-2.1713,-2.1719,-2.1594,-2.1709,-2.1709,-2.1709,-2.1708,-2.1708,0,-2.1523,-2.1527,-2.1553,-2.1575,-2.1598,-2.1576,-2.1592,-2.1614,-2.1647,-2.1662,-2.1686,-2.1726,-2.1758,-2.1763,-2.1794,-2.1818,-2.1811,-2.1827,-2.1826,-2.1829,-2.1733,-2.172,-2.1833,-2.1833,-2.1833,-2.1833,-2.1833,-2.1833,-2.1585,-2.1632,-2.1628,-2.1681,-2.1685,-2.1722,-2.1733,-2.1749,-2.176,-2.1805,-2.183,-2.1832,-2.1844,-2.1876,-2.1905,-2.1906,-2.1919,-2.1939,-2.1937,-2.1848,-2.1835,-2.1823,-2.1811,-2.1942,-2.1942,-2.203,-2.2031,-2.2032]},{"header":{"parameterUnit":"m.s-1","parameterCategory":1,"la1":30.2991,"la2":30.254,"lo1":-89.0895,"lo2":-89.0444,"dy":0.0017,"dx":0.0017,"nx":28,"ny":28,"refTime":"2026-01-04T09:00:00:Z","depth":0,"parameterNumber":3,"parameterNumberName":"V-component_of_WINDS"},"data":[0,0,0,0,0,0,0,0,0,0,0,0,0,0,0,0,0,0,0,0,0,0,0,0,0,0,0,0,0,0,0,0,0,0,0,0,0,0,0,0,0,0,0,0,0,0,0,0,0,0,0,0,0,0,0,0,0,0,-1.0859,-1.0859,0,-1.0844,-1.0844,-1.0844,-1.0809,-1.0808,-1.0807,-1.0807,-1.0793,-1.0793,-1.0793,0,0,0,0,0,0,0,0,0,0,0,0,0,-1.0857,-1.0857,-1.0859,-1.0859,-1.0858,-1.0844,-1.0844,-1.0844,-1.0809,-1.0808,-1.0807,-1.0806,-1.0793,-1.0793,-1.0793,0,0,0,0,0,0,0,0,0,0,0,0,0,-1.0851,-1.0857,-1.0859,-1.0839,-1.0837,-1.0844,-1.0844,-1.0844,-1.0809,-1.0808,-1.0807,-1.0806,-1.0793,-1.0793,-1.0793,-1.0818,0,0,-1.0795,-1.0795,0,0,0,0,0,0,0,0,-1.0852,-1.0852,-1.0842,-1.0841,-1.0839,-1.0827,-1.0838,-1.0835,-1.0809,-1.082,-1.0807,-1.0805,-1.0805,-1.0805,-1.0804,-1.0818,-1.0817,-1.0795,-1.0795,-1.0795,-1.0796,0,0,0,0,0,0,0,-1.0852,-1.0852,-1.0853,-1.0842,-1.084,-1.0831,-1.0829,-1.0837,-1.0819,-1.0819,-1.0816,-1.0815,-1.0804,-1.0804,-1.0804,-1.0817,-1.0795,-1.0795,-1.0796,-1.0796,-1.085,-1.0852,0,0,0,0,0,0,-1.0855,-1.0853,-1.0853,-1.0853,-1.0843,-1.0832,-1.083,-1.0832,-1.0819,-1.0816,-1.0816,-1.0813,-1.0804,-1.0803,-1.0803,-1.0832,-1.0795,-1.0796,-1.0796,-1.0849,-1.0851,-1.0852,0,0,0,0,0,0,-1.0855,-1.0856,-1.0854,-1.0852,-1.0851,-1.0833,-1.0836,-1.0832,-1.0832,-1.0817,-1.0813,-1.0819,-1.0803,-1.0802,-1.0815,-1.0831,-1.0796,-1.0796,-1.0848,-1.085,-1.0851,-1.089,0,0,0,0,0,0,-1.0855,-1.0856,-1.0865,-1.0852,-1.0851,-1.0866,-1.0837,-1.0833,-1.0833,-1.083,-1.0819,-1.0816,-1.0802,-1.0814,-1.0815,-1.0831,-1.0797,-1.0846,-1.0849,-1.0851,-1.0887,-1.0893,-1.0897,0,0,0,0,0,-1.0856,-1.0877,-1.0866,-1.0866,-1.0863,-1.0867,-1.0867,-1.085,-1.0834,-1.0844,-1.0834,-1.0816,-1.0829,-1.0816,-1.0817,-1.0833,-1.0845,-1.0848,-1.0851,-1.0885,-1.0892,-1.0897,0,0,0,0,0,0,-1.0893,-1.0875,-1.0863,-1.088,-1.0876,-1.0861,-1.0873,-1.0857,-1.0857,-1.0854,-1.0833,-1.0831,-1.0846,-1.084,-1.0827,-1.0856,-1.0834,-1.0837,-1.086,-1.0866,-1.0871,-1.0873,-1.0797,0,0,0,0,0,-1.0903,-1.0908,-1.0892,-1.0909,-1.0907,-1.0891,-1.0892,-1.0879,-1.0873,-1.0871,-1.0862,-1.0857,-1.086,-1.0863,-1.0864,-1.0885,-1.0883,-1.0897,-1.0902,-1.0906,-1.091,-1.0921,-1.0927,-1.0861,-1.0861,-1.0861,0,0,-1.0924,-1.0915,-1.092,-1.0917,-1.0911,-1.0917,-1.0889,-1.0897,-1.0901,-1.0873,-1.0884,-1.0877,-1.087,-1.0887,-1.0894,-1.0883,-1.0927,-1.091,-1.0913,-1.0914,-1.0924,-1.0931,-1.0936,-1.0862,-1.0862,-1.0862,0,0,-1.0967,-1.096,-1.0974,-1.0969,-1.0961,-1.0949,-1.0953,-1.094,-1.0935,-1.0945,-1.0924,-1.0929,-1.0934,-1.0931,-1.0929,-1.0969,-1.0954,-1.097,-1.0998,-1.1009,-1.1015,-1.1019,-1.1034,-1.104,-1.0973,-1.0973,-1.0973,0,-1.0994,-1.1002,-1.0983,-1.0992,-1.0991,-1.0965,-1.0979,-1.0975,-1.0968,-1.0969,-1.0956,-1.0961,-1.0955,-1.0971,-1.0981,-1.098,-1.0984,-1.0972,-1.1015,-1.102,-1.1024,-1.1038,-1.1044,-1.0975,-1.0975,-1.0975,-1.0975,0,-1.1037,-1.1043,-1.1055,-1.1049,-1.105,-1.1061,-1.1043,-1.1046,-1.1033,-1.1023,-1.1034,-1.1025,-1.1025,-1.1028,-1.1015,-1.1042,-1.1035,-1.1019,-1.0997,-1.1033,-1.1046,-1.1051,-1.0979,-1.0978,-1.0977,-1.0977,0,0,-1.1104,-1.1086,-1.1091,-1.1088,-1.1077,-1.1081,-1.1091,-1.1091,-1.1094,-1.109,-1.1098,-1.1103,-1.1088,-1.1086,-1.1073,-1.1082,-1.1116,-1.1065,-1.1064,-1.1076,-1.1146,-1.1159,-1.1166,-1.1104,-1.1105,-1.1106,-1.1147,0,-1.1145,-1.1161,-1.1143,-1.1163,-1.1169,-1.1143,-1.1152,-1.1146,-1.1137,-1.114,-1.1129,-1.1134,-1.1113,-1.1112,-1.112,-1.111,-1.113,-1.1106,-1.1113,-1.1113,-1.1117,-1.1172,-1.1186,-1.1225,-1.1151,-1.1152,-1.1153,0,-1.1195,-1.1193,-1.1213,-1.1201,-1.1203,-1.1211,-1.1209,-1.1212,-1.1205,-1.1197,-1.1195,-1.1179,-1.1188,-1.1165,-1.1178,-1.1162,-1.1164,-1.1159,-1.116,-1.1161,-1.1136,-1.1176,-1.1237,-1.1243,-1.116,-1.116,-1.1159,0,-1.1243,-1.1245,-1.1258,-1.1256,-1.1241,-1.1248,-1.1242,-1.1234,-1.1234,-1.1232,-1.1233,-1.1232,-1.1232,-1.1231,-1.1215,-1.12,-1.123,-1.1206,-1.1225,-1.1226,-1.1234,-1.1234,-1.1297,-1.1232,-1.1232,-1.1232,-1.1232,0,-1.1291,-1.1305,-1.1279,-1.1287,-1.1302,-1.1281,-1.1296,-1.1288,-1.1281,-1.1287,-1.1264,-1.1271,-1.1248,-1.1252,-1.1239,-1.1252,-1.1252,-1.1247,-1.1243,-1.125,-1.125,-1.1251,-1.1249,-1.1234,-1.1233,-1.1233,-1.1233,0,-1.1348,-1.1331,-1.1344,-1.1328,-1.1325,-1.1337,-1.1324,-1.1331,-1.1319,-1.1327,-1.1328,-1.131,-1.1314,-1.1297,-1.1297,-1.1289,-1.1309,-1.13,-1.1311,-1.1309,-1.133,-1.1329,-1.1397,-1.1405,-1.1334,-1.1335,-1.1335,0,-1.1381,-1.1391,-1.1376,-1.1379,-1.1374,-1.1378,-1.1378,-1.1358,-1.1359,-1.1351,-1.1359,-1.1361,-1.1361,-1.1368,-1.1355,-1.1355,-1.1348,-1.1371,-1.1348,-1.1354,-1.1349,-1.135,-1.1351,-1.1377,-1.1378,-1.1379,-1.1379,0,-1.144,-1.1431,-1.1433,-1.1431,-1.1432,-1.143,-1.1426,-1.1429,-1.1407,-1.1409,-1.1413,-1.1413,-1.1413,-1.1415,-1.1412,-1.1407,-1.139,-1.1386,-1.1391,-1.1399,-1.1405,-1.1403,-1.1326,-1.1386,-1.1385,-1.1384,-1.1384,-1.1384,-1.1487,-1.1495,-1.1486,-1.1488,-1.1483,-1.148,-1.1486,-1.1475,-1.1477,-1.1475,-1.1463,-1.1468,-1.1461,-1.1455,-1.1451,-1.1456,-1.1444,-1.1451,-1.1453,-1.1455,-1.1459,-1.1403,-1.1455,-1.1455,-1.1455,-1.1454,-1.1454,0,-1.1547,-1.154,-1.1542,-1.1537,-1.1539,-1.1521,-1.1516,-1.1519,-1.1524,-1.1518,-1.1518,-1.1522,-1.1524,-1.1511,-1.1511,-1.1517,-1.1509,-1.1518,-1.1518,-1.1517,-1.1469,-1.1465,-1.1524,-1.1524,-1.1524,-1.1524,-1.1524,-1.1524,-1.1578,-1.1591,-1.1581,-1.1591,-1.1583,-1.1588,-1.1587,-1.1584,-1.1579,-1.1584,-1.1585,-1.1577,-1.1568,-1.1567,-1.1568,-1.1564,-1.1566,-1.1577,-1.1571,-1.1527,-1.152,-1.1514,-1.1511,-1.1578,-1.1578,-1.1619,-1.1619,-1.162]}]]